Weather History for KHKA - March, 2013

Change the Weather History Date:

Monday, March 18, 2013

  Actual Average Record
Temperature  
Mean Temperature 48 °F -  
Max Temperature 54 °F 61 °F 80 °F (2012)
Min Temperature 43 °F 43 °F 20 °F (1941)
Degree Days  
Heating Degree Days 16    
Moisture  
Dew Point 44 °F    
Average Humidity 89    
Maximum Humidity 100    
Minimum Humidity 72    
Precipitation  
Precipitation 0.43 in - - ()
Sea Level Pressure  
Sea Level Pressure 29.78 in    
Wind  
Wind Speed 11 mph (NW)    
Max Wind Speed 23 mph    
Max Gust Speed 30 mph    
Visibility 9 miles    
Events Rain , Thunderstorm    
Averages and records for this station are not official NWS values.
T = Trace of Precipitation, MM = Missing Value Source: NWS Daily Summary

Daily Weather History Graph

Daily Weather History Graph

Search for Another Location

Airport or City:

Trip Planner

Search our weather history database for the weather conditions in past years. The results will help you decide how hot, cold, wet, or windy it might be!

Date:

Astronomy

Mar. 18, 2013 Rise Set
Actual Time 7:05 AM CDT 7:09 PM CDT
Civil Twilight 6:39 AM CDT 7:35 PM CDT
Nautical Twilight 6:10 AM CDT 8:05 PM CDT
Astronomical Twilight 5:40 AM CDT 8:35 PM CDT
Moon 11:15 AM CDT (3/18) 12:58 AM CDT (3/18)
Length of Visible Light 12h 55m
Length of Day
12h 04m
Waxing Crescent, 41% of the Moon is Illuminated
Mar 18
Waxing Crescent
Mar 19
First Quarter
Mar 27
Full
Apr 2
Last Quarter
Apr 10
New

Hourly Weather History & Observations

Time (CDT) Temp. Windchill Dew Point Humidity Pressure Visibility Wind Dir Wind Speed Gust Speed Precip Events Conditions
12:49 AM 48.2 °F - 46.4 °F 93% 29.71 in 6.0 mi NW 23.0 mph 29.9 mph N/A   Mostly Cloudy
12:53 AM 46.9 °F - 46.0 °F 97% 29.71 in 6.0 mi NW 16.1 mph 29.9 mph N/A   Overcast
12:57 AM 46.4 °F 39.8 °F 46.4 °F 100% 29.70 in 6.0 mi NW 16.1 mph 29.9 mph 0.00 in Rain Light Rain
1:53 AM 45.0 °F 39.3 °F 43.0 °F 93% 29.71 in 8.0 mi NNW 11.5 mph - 0.00 in   Overcast
2:16 AM 44.6 °F 38.8 °F 42.8 °F 93% 29.71 in 10.0 mi North 11.5 mph - N/A Thunderstorm Overcast
2:39 AM 44.6 °F 38.4 °F 42.8 °F 93% 29.72 in 10.0 mi North 12.7 mph - 0.00 in Rain , Thunderstorm Light Rain
2:53 AM 45.0 °F 38.5 °F 43.0 °F 93% 29.76 in 8.0 mi NNW 13.8 mph - 0.02 in Rain , Thunderstorm Thunderstorms and Rain
3:10 AM 44.6 °F 40.2 °F 42.8 °F 93% 29.71 in 9.0 mi NE 8.1 mph - 0.04 in Rain , Thunderstorm Light Rain
3:17 AM 44.6 °F 40.2 °F 42.8 °F 93% 29.70 in 10.0 mi NE 8.1 mph - 0.05 in Rain , Thunderstorm Light Thunderstorms and Rain
3:42 AM 44.6 °F 42.2 °F 42.8 °F 93% 29.69 in 7.0 mi NNE 4.6 mph - 0.06 in Rain Heavy Rain
3:51 AM 44.6 °F 42.2 °F 42.8 °F 93% 29.70 in 9.0 mi NE 4.6 mph - 0.07 in Rain Light Rain
3:53 AM 44.1 °F 42.5 °F 43.0 °F 96% 29.70 in 10.0 mi NNE 3.5 mph - 0.08 in Rain Light Rain
4:02 AM 44.6 °F 42.2 °F 42.8 °F 93% 29.70 in 10.0 mi North 4.6 mph - 0.00 in   Overcast
4:14 AM 44.6 °F 40.7 °F 42.8 °F 93% 29.71 in 10.0 mi NNW 6.9 mph - 0.01 in   Overcast
4:22 AM 44.6 °F 40.7 °F 42.8 °F 93% 29.71 in 9.0 mi NNW 6.9 mph - 0.02 in Rain , Thunderstorm Light Rain
4:50 AM 44.6 °F 40.2 °F 42.8 °F 93% 29.71 in 10.0 mi NNW 8.1 mph - 0.04 in Rain Light Rain
4:53 AM 44.1 °F 39.5 °F 43.0 °F 96% 29.71 in 10.0 mi NNW 8.1 mph - 0.04 in Rain Light Rain
5:04 AM 44.6 °F 40.2 °F 42.8 °F 93% 29.70 in 10.0 mi North 8.1 mph - 0.01 in Thunderstorm Overcast
5:53 AM 45.0 °F - 42.1 °F 90% 29.70 in 6.0 mi Calm Calm - 0.04 in Rain , Thunderstorm Heavy Thunderstorms and Rain
6:07 AM 44.6 °F - 42.8 °F 93% 29.70 in 1.8 mi Calm Calm - 0.01 in Rain , Thunderstorm Heavy Thunderstorms and Rain
6:15 AM 44.6 °F - 44.6 °F 100% 29.69 in 3.0 mi Calm Calm - 0.02 in Rain , Thunderstorm Light Thunderstorms and Rain
6:28 AM 44.6 °F 42.2 °F 44.6 °F 100% 29.72 in 9.0 mi SSW 4.6 mph - 0.03 in Rain Light Rain
6:53 AM 45.0 °F 41.8 °F 44.1 °F 97% 29.73 in 10.0 mi West 5.8 mph - 0.05 in Rain Light Rain
7:10 AM 44.6 °F 39.7 °F 44.6 °F 100% 29.74 in 9.0 mi West 9.2 mph - 0.01 in   Overcast
7:53 AM 45.0 °F 42.6 °F 44.1 °F 97% 29.75 in 8.0 mi SSW 4.6 mph - 0.04 in   Overcast
8:09 AM 46.4 °F 43.5 °F 44.6 °F 93% 29.76 in 7.0 mi SSW 5.8 mph - 0.01 in   Overcast
8:36 AM 46.4 °F 44.3 °F 44.6 °F 93% 29.75 in 10.0 mi WSW 4.6 mph - 0.03 in   Mostly Cloudy
8:53 AM 46.9 °F - 45.0 °F 93% 29.75 in 10.0 mi WSW 5.8 mph - 0.04 in   Partly Cloudy
9:53 AM 48.9 °F - 46.0 °F 90% 29.78 in 10.0 mi WSW 3.5 mph - 0.03 in   Clear
10:19 AM 51.8 °F - 48.2 °F 88% 29.80 in 10.0 mi NW 12.7 mph - 0.01 in   Mostly Cloudy
10:53 AM 51.1 °F - 46.9 °F 86% 29.81 in 10.0 mi NW 13.8 mph - 0.03 in   Overcast
11:53 AM 52.0 °F - 46.0 °F 80% 29.82 in 10.0 mi NNW 13.8 mph - 0.02 in   Overcast
12:40 PM 50.0 °F - 46.4 °F 87% 29.83 in 10.0 mi NNW 8.1 mph - 0.01 in   Overcast
12:53 PM 51.1 °F - 46.0 °F 83% 29.81 in 10.0 mi NNW 9.2 mph - 0.02 in   Overcast
1:53 PM 52.0 °F - 46.0 °F 80% 29.80 in 10.0 mi NNW 11.5 mph - 0.01 in   Overcast
2:08 PM 51.8 °F - 46.4 °F 82% 29.80 in 10.0 mi NNW 13.8 mph - 0.01 in   Unknown
2:44 PM 51.8 °F - 44.6 °F 76% 29.81 in 10.0 mi NNW 12.7 mph - 0.01 in   Overcast
2:53 PM 51.1 °F - 45.0 °F 80% 29.81 in 10.0 mi NW 13.8 mph - 0.01 in   Overcast
3:09 PM 51.8 °F - 46.4 °F 82% 29.82 in 10.0 mi NNW 12.7 mph - N/A   Overcast
3:53 PM 53.1 °F - 46.0 °F 77% 29.83 in 10.0 mi NW 15.0 mph - N/A   Overcast
4:53 PM 53.1 °F - 46.0 °F 77% 29.86 in 10.0 mi NNW 11.5 mph - N/A   Overcast
5:18 PM 53.6 °F - 46.4 °F 77% 29.86 in 10.0 mi NNW 13.8 mph - N/A   Overcast
5:53 PM 54.0 °F - 45.0 °F 72% 29.88 in 10.0 mi North 17.3 mph - N/A   Overcast
6:53 PM 48.9 °F - 43.0 °F 80% 29.91 in 10.0 mi North 10.4 mph - N/A   Clear
7:53 PM 46.0 °F - 41.0 °F 83% 29.94 in 10.0 mi Calm Calm - N/A   Clear
8:53 PM 46.0 °F - 39.9 °F 79% 29.96 in 10.0 mi Calm Calm - N/A   Clear
9:53 PM 44.1 °F - 41.0 °F 89% 29.99 in 10.0 mi Calm Calm - N/A   Clear
10:53 PM 43.0 °F 41.3 °F 39.9 °F 89% 30.02 in 10.0 mi West 3.5 mph - N/A   Clear
11:53 PM 44.1 °F 41.5 °F 39.9 °F 85% 30.05 in 10.0 mi West 4.6 mph - N/A   Clear